Location: Bonneuil
(46.1010°N, 2.9693°E)
Time: 18:12:51
(UTC+00:00)

Cosmos 1656 - Pass Details

Date: 09 April 2020
Orbit: 798 x 849 km, 71.1° (Epoch: 02 June)

Event Time Altitude Azimuth Distance (km) Brightness Sun altitude
Rises 21:24:47 0° 330° (NNW) 3,418 8.1 -27.0°
Reaches altitude 10° 21:27:18 10° 326° (NW) 2,474 7.1 -27.3°
Maximum altitude 21:32:48 54° 250° (WSW) 1,017 4.1 -27.9°
Enters shadow 21:33:15 52° 232° (SW) 1,032 4.0 -27.9°
